Location: Griffin Ranch
(33.6186°N, 110.6622°W)
Time: 06:02:38
(UTC-07:00)

Daily predictions for brighter satellites

Satellite Brightness Start Highest point End
(mag) Time Altitude Azimuth Time Altitude Azimuth Time Altitude Azimuth
Cosmos 1980 Rocket 2.8 19:56:32 10° NNW 20:02:06 59° WSW 20:07:41 10° S
SL-16 R/B 2.6 19:58:34 10° N 20:04:02 48° ENE 20:09:29 10° SE
FENGYUN 3A 3.7 19:59:20 10° SSE 20:04:44 77° ENE 20:10:10 10° N
ERS-1 Rocket 3.7 20:00:40 10° SE 20:05:14 36° ENE 20:09:49 10° N
Cosmos 2026 Rocket 4.1 20:01:46 10° S 20:07:51 82° W 20:14:02 10° N
H-2A R/B 3.4 20:05:57 10° SE 20:09:44 27° ENE 20:13:31 10° NNE
GPS 2-04 Rocket1 3.3 20:07:52 10° W 20:12:09 54° SSW 20:16:23 10° SE
Cosmos 1328 Rocket 3.9 20:10:59 10° N 20:15:17 47° E 20:19:32 10° SSE
Cosmos 1674 3.8 20:12:45 10° SSE 20:15:55 25° E 20:19:06 10° NE
Cosmos 1777 Rocket 4.0 20:12:08 10° S 20:17:19 63° ESE 20:22:32 10° NNE
DELTA 2 R/B (1) 4.3 20:15:36 10° WNW 20:20:58 49° N 20:26:21 10° E
CZ-2C R/B 1.5 20:22:54 13° ENE 20:22:54 13° ENE 20:23:37 10° NE
ATLAS CENTAUR R/B 2.0 20:19:04 10° NW 20:23:25 57° WSW 20:27:22 10° SSE
Cosmos 1939 Rocket 3.6 20:22:28 11° SE 20:25:53 34° ENE 20:29:26 10° N
NOSS 3-1 (C) 4.1 20:21:56 10° SSE 20:26:46 29° ESE 20:31:57 10° NE
Cosmos 1743 Rocket 3.8 20:22:34 10° S 20:27:02 79° W 20:31:31 10° N
Cosmos 405 4.3 20:28:45 10° NNE 20:31:49 25° ENE 20:33:51 16° ESE
Cosmos 1833 4.2 20:26:53 10° SSW 20:32:34 72° ESE 20:38:15 10° NNE
Cosmos 1500 Rocket 3.5 20:28:41 10° S 20:33:02 80° E 20:37:26 10° N
Cosmos 2228 Rocket 3.3 20:28:58 10° N 20:33:28 77° W 20:37:58 10° S
H-2A R/B 3.8 20:29:54 10° S 20:33:35 44° W 20:37:15 10° NNW
S3M 4.0 20:31:11 10° N 20:37:19 87° E 20:43:28 10° S
Cosmos 1437 Rocket 3.0 20:34:25 10° N 20:38:07 48° E 20:40:57 16° SSE
deb Chang Zheng 4 3.7 20:44:38 10° N 20:48:58 76° WNW 20:53:17 10° SSW
Delta 2 Rocket 3.0 20:45:22 10° W 20:49:01 72° N 20:52:08 12° ENE
Meteor 2-2 Rocket 4.4 20:44:02 10° N 20:50:03 74° E 20:55:27 13° SSE
USA 186 4.1 20:49:05 10° SW 20:50:17 13° W 20:51:30 10° WNW
Cosmos 1680 Rocket 4.2 20:46:49 10° N 20:51:43 39° ENE 20:54:43 21° SE
Cosmos 1538 Rocket 4.4 20:46:28 10° NNW 20:51:46 66° WSW 20:56:54 11° S
COSMOS 2428 4.2 20:47:41 10° N 20:52:01 22° ENE 20:55:02 15° E
OAO 2 Rocket 3.7 20:47:05 10° SW 20:52:08 46° SSE 20:57:13 10° E
CZ-4B R/B 4.1 20:49:53 10° NNE 20:54:45 37° E 20:57:51 19° SSE
Cosmos 923 Rocket 4.2 20:50:49 10° N 20:55:57 57° ENE 20:59:10 22° SE
Cosmos 1328 3.9 20:57:23 21° SSE 20:59:49 54° E 21:03:42 10° NNE
Cosmos 1898 Rocket 4.3 20:59:20 23° SE 21:01:17 30° E 21:05:45 10° NE
ARGOS 4.3 20:59:48 20° ESE 21:02:18 28° ENE 21:06:49 10° NNE
Cosmos 2219 Rocket 4.2 21:01:18 10° NNE 21:03:53 13° NE 21:06:27 10° E
Cosmos 1515 Rocket 4.2 21:00:56 10° NNW 21:05:16 55° W 21:09:16 12° S
Cosmos 2151 2.8 21:03:19 14° S 21:06:53 85° E 21:11:06 10° N
USA 245 4.3 21:09:33 17° NE 21:09:33 17° NE 21:10:42 10° NNE
Cosmos 883 Rocket 4.4 21:02:59 10° N 21:09:12 77° E 21:13:38 20° SSE
Cosmos 773 Rocket 4.1 21:06:27 10° NNW 21:11:39 76° WSW 21:15:05 22° S
Sich 1 3.9 21:11:22 29° ESE 21:12:10 31° E 21:16:04 10° NNE
Tiangong 1 1.1 21:09:21 10° WSW 21:12:27 76° NNW 21:14:50 16° ENE
Cosmos 1633 Rocket 3.9 21:13:56 30° ESE 21:14:33 31° E 21:18:25 10° NNE
Cosmos 1726 3.5 21:14:38 10° NNE 21:17:46 24° ENE 21:17:46 24° ENE
Cosmos 2219 3.3 21:16:15 10° SSW 21:22:00 82° WNW 21:27:47 10° NNE
SL-14 R/B 3.5 21:24:00 45° ESE 21:24:26 48° E 21:28:17 10° NNE
SPOT 5 2.8 21:23:12 28° S 21:25:32 73° WSW 21:30:16 10° NNW
Cosmos 1151 Rocket 3.6 21:21:59 10° NNW 21:26:12 55° W 21:28:42 23° SSW
Cosmos 2058 2.7 21:25:16 33° S 21:27:01 87° E 21:31:08 10° N
Cosmos 1271 Rocket 4.4 21:24:23 10° NNE 21:26:53 19° ENE 21:26:53 19° ENE
PSLV R/B 3.5 21:27:00 50° SW 21:27:31 59° W 21:30:33 10° NNW
Cosmos 1805 Rocket 3.5 21:27:06 30° S 21:29:16 87° E 21:33:43 10° N
NOSS 3-1 (A) 3.2 21:24:13 10° SSW 21:29:56 73° ESE 21:36:12 10° NE
Cosmos 2237 Rocket 4.1 21:30:44 10° NNE 21:34:08 16° NE 21:36:00 14° ENE
Cosmos 2322 3.8 21:29:16 10° NNW 21:34:58 76° WSW 21:37:34 34° S
Cosmos 2315 Rocket 3.9 21:29:08 10° N 21:35:21 88° E 21:38:37 30° S
Cosmos 2322 Rocket 4.2 21:32:43 10° NW 21:36:51 21° W 21:41:00 10° SSW
Meteor 1-27 4.2 21:32:41 10° N 21:38:20 66° E 21:40:12 41° SE
Envisat 4.1 21:36:48 17° SSW 21:40:14 40° W 21:45:00 10° NNW
USA 32 4.5 21:36:19 10° NNE 21:41:20 43° E 21:42:07 40° ESE
Meteor 1-4 Rocket 3.8 21:41:25 10° NNE 21:44:12 31° NE 21:44:12 31° NE
NOAA 11 4.2 21:43:47 44° SE 21:45:27 70° ENE 21:50:53 10° N
H-2A R/B 4.2 21:42:20 11° SSW 21:45:37 23° W 21:49:15 10° NW
Cosmos 2360 Rocket 2.6 21:41:12 10° NNW 21:46:43 57° WSW 21:49:07 32° S
Cosmos 304 Rocket 4.3 21:42:14 10° NNW 21:46:54 52° WSW 21:48:35 34° SSW
SL-16 R/B 4.4 21:43:52 10° WNW 21:47:41 19° W 21:51:28 10° SW
Cosmos 1666 Rocket 3.7 21:50:24 45° SSW 21:51:39 71° W 21:56:04 10° N
Cosmos 1707 Rocket 3.5 21:47:39 10° N 21:52:01 83° W 21:52:39 64° S
ATLAS 2AS CENTAUR R/B 3.2 21:50:45 38° SE 21:52:13 42° ESE 21:59:30 10° NE
Cosmos 1626 4.2 21:55:19 18° NE 21:55:19 18° NE 21:56:44 10° NNE
Cosmos 2112 Rocket 4.4 21:51:51 10° NNW 21:56:59 56° WSW 21:58:39 39° SSW
Cosmos 220 Rocket 3.9 21:58:39 74° E 21:58:39 74° E 22:02:56 10° NNE
Cosmos 2298 Rocket 4.5 21:54:40 17° SSW 21:58:38 60° WNW 22:03:54 10° N
Nadezhda 1 Rocket 4.3 21:55:23 10° N 22:01:11 45° E 22:02:04 42° ESE
Cosmos 1937 Rocket 3.4 22:00:08 52° S 22:01:27 85° ESE 22:06:41 10° NNE
Landsat 7 3.8 22:01:33 62° E 22:01:51 63° ENE 22:06:33 10° N
Cosmos 1470 Rocket 4.0 22:05:53 50° NE 22:05:53 50° NE 22:09:24 10° NNE
Meteor 2-11 Rocket 4.5 21:59:15 10° N 22:05:23 75° W 22:07:30 43° SSW
Cosmos 1933 Rocket 4.0 22:07:05 52° ENE 22:07:05 52° ENE 22:10:51 10° NNE
Cosmos 1300 3.4 22:03:17 10° NNW 22:07:00 47° W 22:07:01 47° W
DELTA 2 R/B (1) 3.4 22:02:07 10° WNW 22:07:41 79° SSW 22:08:22 68° SE
SL-08 R/B 4.4 22:06:16 42° S 22:08:31 87° W 22:14:49 10° N
Cosmos 1745 Rocket 3.9 22:06:59 50° S 22:08:46 80° E 22:14:58 10° N
Cosmos 2227 Rocket 2.1 22:08:49 61° ESE 22:09:05 61° ESE 22:14:40 10° NNE
YAOGAN 6 4.3 22:09:51 27° WSW 22:10:03 27° W 22:13:11 10° NW
Cosmos 292 Rocket 3.9 22:05:22 10° N 22:09:58 58° ENE 22:09:58 58° ENE
Cosmos 990 Rocket 3.8 22:13:45 77° ESE 22:13:52 77° ESE 22:19:01 10° NNE
ATLAS 3B R/B 4.4 22:09:04 10° N 22:14:02 20° NE 22:17:16 15° ENE
Terra 1.9 22:17:55 63° ENE 22:17:55 63° ENE 22:22:26 10° N
Spot 4 4.3 22:18:40 48° ENE 22:18:40 48° ENE 22:23:04 10° N
H-2A R/B 2.0 22:19:46 73° ESE 22:20:09 78° ENE 22:25:35 10° N
Spot 2 4.4 22:15:18 10° NNE 22:19:58 66° ENE 22:19:58 66° ENE
Cosmos 2333 Rocket 2.6 22:19:16 10° N 22:24:51 49° ENE 22:25:14 48° ENE
SL-16 R/B 4.0 22:22:59 10° NNE 22:26:58 19° ENE 22:27:44 19° ENE
Cosmos 1455 3.7 22:26:01 10° N 22:28:13 32° NNE 22:28:13 32° NNE
NOSS 0 Rocket 3.9 22:26:38 10° NNW 22:32:46 68° ENE 22:33:18 65° E
Cosmos 1386 Rocket 4.3 22:34:40 69° SSW 22:35:27 85° W 22:41:29 10° N
Cosmos 2297 Rocket 2.2 22:36:46 69° ENE 22:36:46 69° ENE 22:41:56 10° NNE
COSMOS 2428 3.3 22:31:03 10° NW 22:36:26 45° WSW 22:37:03 43° WSW
OAO 2 Rocket 3.5 22:31:32 10° W 22:36:15 70° W 22:36:15 70° W
ARGOS 4.4 22:41:19 28° WSW 22:42:22 31° W 22:47:06 10° NW
Cosmos 2181 Rocket 4.5 22:40:07 10° N 22:46:15 47° E 22:46:15 47° E
Cosmos 2219 Rocket 2.2 22:42:49 10° NNW 22:48:12 75° W 22:48:12 75° W
Cosmos 1125 Rocket 4.1 22:50:16 49° NE 22:50:16 49° NE 22:54:16 10° NNE
SeaSat 1 3.9 22:52:14 27° NE 22:52:14 27° NE 22:56:08 10° N
FALCON 9 R/B 3.2 22:40:32 10° W 23:01:09 86° N 23:03:14 50° E
Lacrosse 4 Rocket 3.5 22:58:25 10° N 23:00:59 22° NE 23:00:59 22° NE
Cosmos 1980 3.8 23:00:10 10° NNW 23:05:12 68° NW 23:05:12 68° NW
Cosmos 2237 Rocket 2.6 23:13:00 10° NNW 23:17:50 57° WNW 23:17:50 57° WNW
Meteor 2-3 Rocket 4.5 23:23:45 44° NE 23:23:45 44° NE 23:27:58 10° NNE
COSMOS 2455 3.1 23:27:24 10° NNW 23:32:41 63° NNE 23:32:41 63° NNE
ATLAS 2AS CENTAUR R/B 4.1 23:38:04 18° WSW 23:43:13 39° NW 23:50:39 10° NNE
